Orbital Elements at Epoch 2459200.5 (2020-Dec-17.0) TDB
Reference: JPL 19 (heliocentric ecliptic J2000)
Element | Value | Uncertainty (1-sigma) | Units |
e | .08430155122495421 | 4.1199e-08 | |
a | 2.872542639487702 | 1.9796e-08 | au |
q | 2.630382839019065 | 1.2301e-07 | au |
i | 3.042025119743129 | 3.8488e-06 | deg |
node | 71.64360691077721 | 8.581e-05 | deg |
peri | 276.1415042555222 | 8.9278e-05 | deg |
M | 88.46912182499167 | 2.324e-05 | deg |
tp | 2458763.494031548034 (2019-Oct-06.99403155) | 0.00011553 | TDB |
period | 1778.271846689292 4.87 | 1.8383e-05 5.033e-08 | d yr |
n | .2024437380990044 | 2.0927e-09 | deg/d |
Q | 3.114702439956341 | 2.1465e-08 | au |
|
| | Orbit Determination Parameters
Additional Information
|